Вернуться в каталог

STARLINK-32511

АктивенСвязьVLEO
NORAD 61727·PAYLOAD·🇺🇸 United States

Запущен Oct 30, 2024 с Cape Canaveral Space Force Station

Loading…

Ближайшие Пролёты (ближайшие 24 часа)

TLE

СвежийSource: CelesTrak SupGP

Эпоха: Sep 15, 2026, 03:26 UTC

1 61727C 24196W   26258.14354167 -.00012443  00000+0 -36776-3 0  2584
2 61727  53.1582 298.5809 0001312  95.0261 199.6233 15.34385492    18

Отслеживайте STARLINK-32511 в реальном времени с AllMySat

Download on the App Store